Temp
34 33 33 31 31 28 24 23 25 25 27 29 30 30 30 30 30 28 28 28 27 27 26 25 25 25 26 25 25 26 25 25
34 34 33 33 30 30 24 27 28 26 26 27 30 30 30 29 30 28 27 27 27 26 26 25 25 25 25 26 26 26 25 25
33 33 32 32 30 25 24 23 25 26 25 25 28 28 29 28 29 27 26 26 26 26 26 25 25 25 26 26 26 25 25 25
31 32 31 32 31 26 26 28 22 23 27 29 28 28 28 29 28 27 26 26 25 25 25 24 24 24 25 25 25 25 25 25
30 29 31 35 31 26 23 22 23 25 27 29 27 27 27 28 27 27 26 24 24 23 23 24 24 24 24 25 25 25 25 24
28 30 30 32 32 28 27 25 25 25 31 33 30 27 27 27 27 26 25 24 24 24 24 24 24 24 24 25 25 25 24 24
29 31 31 33 33 32 31 28 31 31 29 32 29 28 26 27 28 26 25 24 25 25 25 24 24 24 24 24 24 25 25 24
31 31 32 33 30 30 30 30 32 29 31 25 27 27 27 28 27 27 26 26 26 26 25 24 24 24 23 23 22 22 23 22
29 30 31 30 30 28 28 27 28 27 27 26 27 28 26 29 27 27 28 27 26 25 25 25 25 24 24 24 23 22 20 19
26 28 30 29 29 29 28 28 27 27 28 28 27 26 24 24 25 25 24 25 25 25 26 26 26 23 20 20 20 19 18 18
26 25 29 30 29 31 29 28 28 27 27 28 28 26 24 24 23 23 22 21 21 22 26 25 23 20 20 20 20 18 17 19
22 28 27 27 30 29 28 26 29 28 27 27 26 24 24 22 22 21 20 19 19 20 20 19 17 19 20 18 18 21 21 23
23 26 26 27 29 28 30 27 28 28 28 27 25 25 23 21 21 20 19 18 19 19 17 17 18 19 19 19 19 19 18 18
22 24 29 28 30 31 25 25 27 27 27 25 23 22 21 20 20 19 18 19 18 18 18 19 19 19 18 17 17 18 18 18
25 24 24 26 28 25 25 25 27 24 25 23 22 21 20 20 18 18 17 17 17 18 17 17 18 19 17 16 17 18 18 18
24 26 25 25 25 26 25 23 23 22 22 22 21 21 20 19 18 18 17 17 17 17 16 15 16 17 16 17 17 18 18 18
22 25 25 26 26 24 23 23 22 22 22 21 21 20 20 19 18 18 17 17 18 17 16 16 17 18 18 18 18 18 18 19
23 23 23 25 25 23 23 22 21 21 19 19 19 19 19 18 18 18 17 18 18 17 17 17 17 17 17 18 17 18 18 19
23 22 24 24 23 23 22 21 20 19 19 19 18 18 18 17 17 18 18 17 17 16 17 16 16 16 17 17 19 18 17 18
Height
726 730 736 769 783 777 818 826 828 813 787 755 740 737 736 733 731 733 731 734 739 744 752 758 765 769 772 777 782 786 789 793
729 722 731 741 751 789 810 830 832 819 809 792 756 746 738 737 734 732 732 736 741 742 748 753 759 765 770 773 776 780 785 790
735 744 752 754 766 786 798 813 832 832 813 756 750 742 739 736 730 730 732 734 738 742 745 750 756 759 763 767 771 775 778 784
761 731 730 737 751 769 801 802 818 819 799 734 736 732 731 726 729 726 726 729 734 741 742 746 751 755 761 765 769 771 774 775
774 757 737 738 744 763 780 795 813 815 794 732 734 732 728 725 726 726 726 733 737 741 742 744 748 753 759 763 766 769 771 775
792 771 755 755 745 755 765 797 798 796 762 734 733 735 728 726 722 724 727 733 735 737 738 741 746 750 752 756 761 766 771 773
752 745 746 743 743 745 754 761 769 761 764 740 737 734 732 727 725 728 731 733 732 732 733 739 744 747 749 752 757 762 766 769
753 744 739 743 746 746 748 751 745 754 754 745 733 727 729 725 726 729 729 729 730 731 733 736 739 741 753 766 771 775 775 775
773 751 749 771 753 754 754 753 754 773 762 748 741 735 735 727 732 734 734 733 736 738 738 744 748 750 753 756 763 766 776 780
780 765 787 761 739 742 753 755 753 753 749 747 746 744 739 735 735 737 736 736 733 731 733 738 745 749 751 755 759 763 772 784
782 792 772 758 748 744 752 762 749 752 749 744 741 743 751 743 741 741 739 737 732 728 727 728 732 740 746 752 753 758 750 763
785 778 793 761 735 728 737 783 745 745 747 745 743 770 763 749 745 744 741 737 732 729 731 731 736 735 738 743 744 740 753 747
780 778 770 742 731 731 768 779 744 743 743 744 756 754 752 751 747 745 743 740 737 735 738 740 742 743 743 746 750 750 758 758
776 781 772 726 727 744 748 743 741 741 742 748 749 751 752 752 750 750 749 746 743 743 743 745 745 747 752 754 759 757 755 754
754 759 734 725 726 727 731 737 738 744 743 744 749 754 755 756 755 752 749 747 745 745 749 750 750 750 754 760 761 756 757 756
745 738 734 730 729 729 731 737 740 741 741 743 751 753 755 756 754 751 750 749 748 749 751 755 754 755 759 760 759 760 758 760
748 738 734 732 732 734 737 739 742 745 745 748 751 755 755 756 756 756 755 755 754 755 756 758 759 759 759 760 761 761 760 762
748 730 734 734 731 732 738 743 745 745 751 753 752 753 755 758 758 759 759 758 757 758 758 761 762 760 760 758 759 760 761 763
722 722 723 726 730 732 739 744 747 747 751 753 756 756 758 759 760 760 760 760 761 763 764 765 765 762 761 759 759 759 763 763
Wind_Speed
5 6 10 4 3 5 7 4 2 3 7 10 3 5 2 3 5 7 11 16 18 18 22 23 24 29 34 33 32 25 23 21
4 5 3 11 9 2 3 3 4 4 5 6 4 6 5 7 6 6 6 8 10 13 21 24 27 31 32 35 35 28 24 23
3 1 8 2 0 7 6 4 6 2 6 8 10 9 9 8 8 8 9 8 9 10 20 24 26 32 35 36 35 29 28 24
10 2 4 5 3 6 5 4 0 3 6 4 8 11 9 11 9 6 8 10 9 9 19 22 26 29 33 35 34 32 31 30
10 7 6 1 3 5 6 4 6 6 6 3 5 7 9 10 8 7 7 8 8 7 12 20 24 26 28 31 34 32 34 30
7 6 3 5 3 4 5 4 4 6 4 4 5 10 8 9 7 7 8 9 11 11 12 20 22 25 30 33 34 32 32 32
5 3 4 4 3 5 6 5 5 4 6 3 7 5 6 9 1 6 7 9 13 14 12 16 19 24 28 33 35 34 34 33
3 4 1 3 5 7 4 2 3 3 1 5 6 3 6 1 7 7 6 11 13 12 9 15 22 26 15 5 6 14 22 22
5 3 5 4 3 6 4 5 3 5 4 6 10 13 7 1 5 5 5 4 5 8 7 5 5 12 15 15 12 10 2 5
3 3 3 5 4 6 12 4 6 6 4 5 6 5 9 9 8 8 7 5 7 7 11 12 12 18 27 28 24 18 18 17
5 4 2 3 5 3 5 3 5 6 6 5 2 4 8 8 6 4 1 4 8 9 17 25 30 33 35 25 17 11 13 15
3 5 7 8 3 4 4 2 3 5 6 5 6 5 2 4 5 6 7 9 11 10 10 20 24 36 36 24 11 5 29 29
3 3 5 5 3 3 3 7 3 4 4 5 5 3 4 3 5 6 8 9 7 9 14 15 19 20 19 8 4 7 4 12
3 4 2 5 2 4 6 3 6 4 4 7 6 7 6 5 5 7 7 7 6 12 16 10 6 2 3 7 8 7 5 8
5 5 4 2 4 5 5 7 4 7 3 8 8 6 5 5 5 4 6 6 2 4 10 9 4 5 7 14 9 10 8 14
4 4 3 6 6 6 5 10 8 6 8 11 13 8 6 4 2 1 6 6 8 11 14 14 14 12 13 11 10 5 8 6
3 3 6 5 6 8 12 12 13 10 10 12 10 4 4 4 4 5 11 13 15 15 16 13 9 6 7 6 9 8 1 4
5 7 5 5 8 10 12 11 11 16 10 6 5 7 5 5 6 8 11 12 14 13 14 10 7 6 6 4 4 7 11 5
6 6 5 7 7 14 15 12 12 13 11 12 6 7 6 4 6 12 11 11 13 11 11 15 16 16 13 16 17 17 12 10
Wind_Direction
176 164 135 224 178 211 100 12 47 263 293 304 296 301 311 267 307 160 209 187 189 184 183 179 183 187 197 203 207 205 203 205
268 70 101 163 156 101 10 134 266 285 284 238 290 248 226 235 239 124 148 157 182 175 178 179 184 188 194 204 205 203 201 203
6 181 178 112 113 58 116 123 166 215 265 217 217 218 215 230 205 167 169 172 175 176 178 176 177 185 196 202 204 201 197 196
233 258 238 142 145 138 123 222 151 149 273 278 213 216 211 225 187 198 173 172 162 170 167 170 180 187 195 203 204 205 199 199
337 354 359 43 157 111 105 90 190 139 260 275 247 242 222 226 170 197 163 135 145 166 176 184 185 188 195 203 207 208 202 199
190 205 188 309 245 141 112 116 172 222 267 267 224 223 235 236 215 192 147 153 170 191 194 191 188 191 195 202 209 207 207 207
186 180 210 234 320 158 189 184 150 279 218 287 291 249 258 271 354 153 157 173 190 206 198 188 190 196 202 206 206 206 206 209
183 207 107 16 11 69 43 120 282 30 351 324 319 87 41 14 168 193 204 200 205 212 202 195 198 201 192 189 205 218 215 211
234 303 69 31 323 96 90 50 71 50 321 314 44 46 21 79 83 30 355 327 279 259 271 306 182 176 166 158 162 147 91 355
168 47 194 252 93 122 106 84 92 84 49 61 67 44 37 25 80 56 44 349 282 228 188 189 168 148 128 113 99 91 61 32
130 123 58 320 244 222 133 14 350 85 47 18 115 78 31 10 40 89 16 278 287 289 195 164 156 146 133 122 118 91 84 8
118 145 183 217 256 167 127 13 336 74 50 37 53 67 276 354 15 19 8 1 20 48 140 141 136 143 141 139 139 13 283 234
138 125 287 235 192 130 116 221 148 113 82 54 70 199 127 89 37 31 42 44 64 104 96 121 141 147 146 154 289 278 221 261
97 94 194 200 61 169 184 152 149 110 77 86 121 102 93 74 37 29 29 45 71 109 102 122 134 115 72 54 103 60 28 22
160 201 263 331 147 114 123 136 112 102 102 110 114 105 94 82 41 19 40 49 60 93 72 50 3 283 98 108 61 66 86 84
94 325 37 79 69 87 104 97 95 108 106 104 117 131 126 136 131 127 83 66 71 91 85 82 75 100 88 44 33 82 123 135
78 71 80 39 94 116 99 99 93 84 89 106 120 125 154 149 120 56 66 72 81 72 76 84 77 47 338 342 14 12 4 242
198 193 145 175 125 125 107 110 108 105 84 74 125 142 130 107 114 99 99 86 76 74 75 69 57 40 42 75 21 37 20 349
141 156 119 99 88 115 109 116 117 113 118 121 98 120 106 104 104 115 100 81 85 77 85 95 94 92 93 97 88 66 35 45